Tracking 19908 objects as of 18-Oct-2019
HD Live streaming from Space Station
objects crossing your sky now

NOAA 16 DEB

Track NOAA 16 DEB now!
10-day predictions


NORAD ID: 41408
Int'l Code: 2000-055KM
Perigee: 836.4 km
Apogee: 858.1 km
Inclination: 98.8 °
Period: 101.7 minutes
Semi major axis: 7218 km
RCS: Unknown
Launch date: September 21, 2000
Source: United States (US)
Launch site: AIR FORCE WESTERN TEST RANGE (AFWTR)

Note: This is SATELLITE DEBRIS
aabbcc
Your satellite tracking list
Your tracking list is empty




NASA's NSSDC Master Catalog

Two Line Element Set (TLE):
1 41408U 00055KM  19290.07323442  .00000544  00000-0  30006-3 0  9998
2 41408  98.8283   7.3779 0014981  74.1815 286.1009 14.15646302189296
Source of the keplerian elements: AFSPC